Voltar ao catálogo

CHANDRAYAAN 1

AtivoCiênciaHCO
NORAD 33405·PAYLOAD·🇮🇳 India

Lançado Oct 22, 2008 de Satish Dhawan Space Centre

Loading…

TLE

ObsoletoSource: Space-Track

Época: Oct 30, 2008, 23:58 UTC

1 33405U 08052A   08304.99924557 -.00001620  00000-0  00000+0 0  9994
2 33405 018.0795 351.8234 9494907 173.1090 116.9936 00.16996926    09

Acompanhe CHANDRAYAAN 1 em tempo real com AllMySat

Download on the App Store